Retour au catalogue

STARLINK-30606

ActifCommunicationsVLEO
NORAD 58109·PAYLOAD·🇺🇸 United States

Lancé Oct 21, 2023 depuis Vandenberg Space Force Base

Loading…

Prochains Passages (prochaines 24 heures)

TLE

FraisSource: CelesTrak SupGP

Époque: Sep 15, 2026, 02:59 UTC

1 58109C 23161N   26258.12479167  .00065250  00000+0  19277-2 0  2589
2 58109  53.1603   2.5579 0001107  81.4211  83.7928 15.34360957    18

Suivez STARLINK-30606 en temps réel avec AllMySat

Download on the App Store